Raton, NM

12:46 PM MST on December 17, 2017 (GMT -0700)
Raton Municipal-Crews

Weather History for KRTN - February, 2014

Change the Weather History Date:

Thursday, February 13, 2014

  Actual Average (KTAD) Record (KTAD)
Temperature  
Mean Temperature 48 °F -  
Max Temperature 69 °F 54 °F 82 °F (1979)
Min Temperature 28 °F 22 °F -6 °F (1965)
Degree Days  
Heating Degree Days 16    
Moisture  
Dew Point 20 °F    
Average Humidity 38    
Maximum Humidity 67    
Minimum Humidity 13    
Precipitation  
Precipitation 0.00 in - - ()
Sea Level Pressure  
Sea Level Pressure 29.84 in    
Wind  
Wind Speed 8 mph (WNW)    
Max Wind Speed 18 mph    
Max Gust Speed 33 mph    
Visibility 10 miles    
Events      
Averages and records for this station are not official NWS values.
T = Trace of Precipitation, MM = Missing Value Source: NWS Daily Summary

Daily Weather History Graph

Daily Weather History Graph

Search for Another Location

Airport or City:

Trip Planner

Search our weather history database for the weather conditions in past years. The results will help you decide how hot, cold, wet, or windy it might be!

Date:

Astronomy

Feb. 13, 2014 Rise Set
Actual Time 6:48 AM MST 5:36 PM MST
Civil Twilight 6:21 AM MST 6:03 PM MST
Nautical Twilight 5:51 AM MST 6:33 PM MST
Astronomical Twilight 5:21 AM MST 7:03 PM MST
Moon 4:47 PM MST (2/13) 5:42 AM MST (2/13)
Length of Visible Light 11h 41m
Length of Day
10h 48m
Waxing Gibbous, 99% of the Moon is Illuminated
Feb 13
Waxing Gibbous
Feb 14
Full
Feb 22
Last Quarter
Mar 1
New
Mar 8
First Quarter

Hourly Weather History & Observations

Time (MST) Temp. Windchill Dew Point Humidity Pressure Visibility Wind Dir Wind Speed Gust Speed Precip Events Conditions
12:53 AM 33.1 °F 27.7 °F 17.1 °F 52% 29.88 in 10.0 mi Variable 5.8 mph - N/A   Clear
1:53 AM 33.1 °F 30.0 °F 18.0 °F 54% 29.85 in 10.0 mi Variable 3.5 mph - N/A   Clear
2:53 AM 30.0 °F 23.2 °F 18.0 °F 61% 29.86 in 10.0 mi WNW 6.9 mph - N/A   Clear
3:53 AM 36.0 °F 32.1 °F 19.0 °F 50% 29.87 in 10.0 mi South 4.6 mph - N/A   Clear
4:53 AM 30.0 °F 24.1 °F 19.9 °F 66% 29.91 in 10.0 mi NNW 5.8 mph - N/A   Clear
5:53 AM 33.1 °F 28.7 °F 18.0 °F 54% 29.94 in 10.0 mi South 4.6 mph - N/A   Clear
6:53 AM 28.9 °F 22.8 °F 19.0 °F 67% 29.99 in 10.0 mi North 5.8 mph - N/A   Clear
7:53 AM 36.0 °F 32.1 °F 21.9 °F 57% 30.00 in 10.0 mi West 4.6 mph - N/A   Clear
8:53 AM 39.9 °F 36.7 °F 25.0 °F 55% 30.00 in 10.0 mi ENE 4.6 mph - N/A   Clear
9:53 AM 46.9 °F - 23.0 °F 39% 29.98 in 10.0 mi ENE 4.6 mph - N/A   Clear
10:53 AM 51.1 °F - 24.1 °F 35% 29.94 in 10.0 mi South 4.6 mph - N/A   Clear
11:53 AM 57.0 °F - 23.0 °F 27% 29.86 in 10.0 mi SSW 8.1 mph - N/A   Clear
12:53 PM 60.1 °F - 21.9 °F 23% 29.80 in 10.0 mi East 4.6 mph - N/A   Clear
1:53 PM 66.0 °F - 19.9 °F 17% 29.73 in 10.0 mi SW 15.0 mph 20.7 mph N/A   Clear
2:53 PM 69.1 °F - 15.1 °F 13% 29.70 in 10.0 mi NNW 15.0 mph 33.4 mph N/A   Overcast
3:53 PM 62.1 °F - 19.0 °F 19% 29.72 in 10.0 mi West 18.4 mph 25.3 mph N/A   Clear
4:53 PM 60.1 °F - 19.9 °F 21% 29.74 in 10.0 mi West 12.7 mph - N/A   Clear
5:53 PM 57.0 °F - 21.0 °F 25% 29.78 in 10.0 mi West 16.1 mph - N/A   Clear
6:53 PM 55.0 °F - 21.9 °F 28% 29.83 in 10.0 mi NW 10.4 mph - N/A   Clear
7:53 PM 55.0 °F - 21.0 °F 27% 29.79 in 10.0 mi WNW 11.5 mph 20.7 mph N/A   Clear
8:53 PM 53.1 °F - 21.9 °F 30% 29.79 in 10.0 mi NW 10.4 mph 20.7 mph N/A   Clear
9:53 PM 53.1 °F - 21.0 °F 29% 29.75 in 10.0 mi NW 17.3 mph 33.4 mph N/A   Clear
10:53 PM 48.9 °F - 21.0 °F 33% 29.78 in 10.0 mi NW 13.8 mph 19.6 mph N/A   Clear
11:53 PM 51.1 °F - 19.0 °F 28% 29.75 in 10.0 mi North 8.1 mph - N/A   Clear